This demonstration page uses our WeatherBlox Daily Observations layout. Learn more.

Left ArrowRight Arrow

Hourly Observations for July 20, 2015

Temp ( °F °C ) Dew Point ( °F °C ) Humidity (%) Winds ( mph kmh ) Pressure ( in mb ) Visibility ( mi km ) Precip ( " mm )
12:52 am 00:52 Clear 79 26.1 75 23.9 88 88 SW 6 9 29.88 1012 10 16 0.00 0.00
1:52 am 01:52 Clear 81 27.2 73 22.8 77 77 WSW 9 15 29.89 1012 10 16 0.00 0.00
2:52 am 02:52 Mostly Cloudy 81 27.2 72 22.2 74 74 WSW 8 13 29.90 1013 10 16 0.00 0.00
3:52 am 03:52 Clear 79 26.1 72 22.2 79 79 SW 7 11 29.87 1012 10 16 0.00 0.00
4:52 am 04:52 Clear 76 24.4 72 22.2 88 88 SSW 8 13 29.85 1011 10 16 0.00 0.00
5:52 am 05:52 Mostly Cloudy 77 25 72 22.2 85 85 S 6 9 29.88 1012 10 16 0.00 0.00
6:52 am 06:52 Mostly Sunny 77 25 72 22.2 85 85 SSW 10 17 29.87 1012 10 16 0.00 0.00
7:52 am 07:52 Mostly Sunny 79 26.1 70 21.1 74 74 SW 10 17 29.88 1012 10 16 0.00 0.00
8:52 am 08:52 Mostly Sunny 81 27.2 71 21.7 72 72 SW 9 15 29.89 1012 10 16 0.00 0.00
9:52 am 09:52 Mostly Cloudy 81 27.2 72 22.2 74 74 N 3 6 29.89 1012 10 16 0.00 0.00
10:52 am 10:52 Mostly Sunny 83 28.3 72 22.2 70 70 Calm 29.88 1012 10 16 0.00 0.00
11:52 am 11:52 Sunny 83 28.3 72 22.2 70 70 WSW 9 15 29.87 1012 10 16 0.00 0.00
12:52 pm 12:52 Sunny 85 29.4 74 23.3 70 70 SW 8 13 29.85 1011 10 16 0.00 0.00
1:52 pm 13:52 Sunny 88 31.1 73 22.8 61 61 SW 15 24 29.83 1010 10 16 0.00 0.00
2:52 pm 14:52 Mostly Sunny 90 32.2 75 23.9 62 62 SW 14 22 29.82 1010 10 16 0.00 0.00
3:52 pm 15:52 Partly Cloudy 92 33.3 74 23.3 56 56 W 13 20 29.81 1010 10 16 0.00 0.00
4:52 pm 16:52 Sunny 89 31.7 72 22.2 57 57 WNW 7 11 29.80 1009 10 16 0.00 0.00
5:25 pm 17:25 Sunny with Nearby Thunderstorms 87 30.6 74 23.3 65 65 Calm 29.74 1007 10 16 0.00 0.00
5:35 pm 17:35 Partly Cloudy with Thunderstorms 87 30.6 75 23.9 67 67 WSW 10 17 29.74 1007 10 16 0.00 0.03
5:49 pm 17:49 Mostly Cloudy with Strong Thunderstorms 81 27 73 23 79 79 VRB 6 9 29.83 1010 2 3 0.03 0.76
5:52 pm 17:52 Mostly Cloudy with Strong Thunderstorms 79 26.1 74 23.3 85 85 undefined N/A 29.83 1010 1 2 0.15 3.81
6:04 pm 18:04 Cloudy with Thunderstorms 79 26 72 22 79 79 SSW 10 17 29.80 1009 3 5 0.00 0.00
6:21 pm 18:21 Cloudy with Nearby Thunderstorms 77 25 72 22.2 85 85 SSW 10 17 29.83 1010 3 5 0.14 3.56
6:52 pm 18:52 Cloudy with Nearby Thunderstorms 75 23.9 71 21.7 88 88 SSW 10 17 29.83 1010 10 16 0.14 3.56
7:13 pm 19:13 Mostly Cloudy 75 23.9 72 22.2 90 90 SW 13 20 29.83 1010 10 16 0.00 0.00
7:52 pm 19:52 Mostly Cloudy 76 24.4 71 21.7 85 85 SSW 9 15 29.84 1010 10 16 0.00 0.00
8:52 pm 20:52 Partly Cloudy 75 23.9 71 21.7 88 88 Calm 29.85 1011 10 16 0.00 0.00
9:52 pm 21:52 Clear 75 23.9 71 21.7 88 88 Calm 29.88 1012 10 16 0.00 0.00
10:52 pm 22:52 Clear 73 22.8 71 21.7 94 94 Calm 29.88 1012 10 16 0.00 0.00
11:52 pm 23:52 Clear 74 23.3 71 21.7 91 91 Calm 29.87 1012 10 16 0.00 0.00

Powered by AerisWeather